Detroit, MI

11:32 PM EST on February 07, 2016 (GMT -0500)
Detroit City

Weather History for KDET - December, 2011

Change the Weather History Date:

Friday, December 2, 2011

  Actual Average Record
Temperature  
Mean Temperature 36 °F -  
Max Temperature 39 °F 40 °F 67 °F (1982)
Min Temperature 32 °F 28 °F 6 °F (1976)
Degree Days  
Heating Degree Days 30    
Moisture  
Dew Point 30 °F    
Average Humidity 83    
Maximum Humidity 96    
Minimum Humidity 60    
Precipitation  
Precipitation 0.06 in - - ()
Sea Level Pressure  
Sea Level Pressure 30.39 in    
Wind  
Wind Speed 6 mph (West)    
Max Wind Speed 12 mph    
Max Gust Speed -    
Visibility 8 miles    
Events Snow    
Averages and records for this station are not official NWS values.
T = Trace of Precipitation, MM = Missing Value Source: NWS Daily Summary

Daily Weather History Graph

Daily Weather History Graph

Search for Another Location

Airport or City:

Trip Planner

Search our weather history database for the weather conditions in past years. The results will help you decide how hot, cold, wet, or windy it might be!

Date:

Astronomy

Dec. 02, 2011 Rise Set
Actual Time 7:42 AM EST 5:00 PM EST
Civil Twilight 7:11 AM EST 5:31 PM EST
Nautical Twilight 6:36 AM EST 6:06 PM EST
Astronomical Twilight 6:02 AM EST 6:40 PM EST
Moon 12:46 PM EST (12/2) 12:03 AM EST (12/2)
Length of Visible Light 10h 20m
Length of Day
9h 17m
First Quarter, 53% of the Moon is Illuminated
Dec 2
First Quarter
Dec 10
Full
Dec 17
Last Quarter
Dec 24
New
Jan 1
First Quarter

Hourly Weather History & Observations

Time (EST) Temp. Windchill Dew Point Humidity Pressure Visibility Wind Dir Wind Speed Gust Speed Precip Events Conditions
12:53 AM 36.0 °F 31.1 °F 28.0 °F 73% 30.25 in 10.0 mi West 5.8 mph - N/A   Overcast
1:53 AM 36.0 °F 31.1 °F 28.0 °F 73% 30.24 in 10.0 mi West 5.8 mph - N/A   Overcast
2:53 AM 36.0 °F 32.1 °F 28.9 °F 76% 30.25 in 10.0 mi WSW 4.6 mph - N/A   Overcast
3:53 AM 35.6 °F 32.8 °F 28.4 °F 75% 30.23 in 10.0 mi WNW 3.5 mph - N/A   Overcast
4:53 AM 35.1 °F 30.1 °F 30.9 °F 85% 30.26 in 4.0 mi WNW 5.8 mph - 0.00 in Snow Light Snow
5:06 AM 33.8 °F 29.6 °F 32.0 °F 93% 30.24 in 2.5 mi WNW 4.6 mph - 0.00 in Snow Light Snow
5:20 AM 33.8 °F 30.8 °F 32.0 °F 93% 30.25 in 1.8 mi West 3.5 mph - 0.01 in Snow Light Snow
5:53 AM 33.1 °F 30.0 °F 32.0 °F 96% 30.27 in 1.2 mi WSW 3.5 mph - 0.03 in Snow Light Snow
6:20 AM 33.8 °F 29.6 °F 32.0 °F 93% 30.26 in 1.5 mi WSW 4.6 mph - 0.01 in Snow Light Snow
6:29 AM 33.8 °F 29.6 °F 32.0 °F 93% 30.27 in 2.0 mi West 4.6 mph - 0.01 in Snow Light Snow
6:39 AM 33.8 °F 28.6 °F 32.0 °F 93% 30.28 in 2.0 mi West 5.8 mph - N/A Snow Light Snow
6:53 AM 33.1 °F 28.7 °F 32.0 °F 96% 30.31 in 2.0 mi West 4.6 mph - 0.01 in Snow Light Snow
7:07 AM 33.8 °F 28.6 °F 32.0 °F 93% 30.30 in 1.8 mi WNW 5.8 mph - 0.01 in Snow Light Snow
7:17 AM 33.8 °F 29.6 °F 32.0 °F 93% 30.30 in 1.2 mi West 4.6 mph - 0.01 in Snow Light Snow
7:53 AM 33.1 °F 26.1 °F 32.0 °F 96% 30.35 in 2.5 mi NW 8.1 mph - 0.02 in Snow Light Snow
8:13 AM 33.8 °F 27.0 °F 32.0 °F 93% 30.33 in 4.0 mi NNW 8.1 mph - 0.00 in   Overcast
8:53 AM 34.0 °F 28.0 °F 30.9 °F 89% 30.38 in 10.0 mi North 6.9 mph - 0.00 in   Mostly Cloudy
9:33 AM 33.8 °F 25.8 °F 30.2 °F 87% 30.38 in 10.0 mi NNW 10.4 mph - N/A   Overcast
9:53 AM 34.0 °F 26.6 °F 30.0 °F 85% 30.41 in 10.0 mi North 9.2 mph - N/A   Overcast
10:06 AM 33.8 °F 25.3 °F 30.2 °F 87% 30.40 in 10.0 mi NNW 11.5 mph - N/A   Overcast
10:13 AM 33.8 °F 25.8 °F 28.4 °F 81% 30.40 in 10.0 mi NW 10.4 mph - N/A   Overcast
10:53 AM 35.1 °F 30.1 °F 30.0 °F 82% 30.44 in 10.0 mi Variable 5.8 mph - N/A   Mostly Cloudy
11:04 AM 35.6 °F 29.2 °F 28.4 °F 75% 30.42 in 10.0 mi NW 8.1 mph - N/A   Scattered Clouds
11:53 AM 37.0 °F 29.3 °F 28.9 °F 73% 30.45 in 10.0 mi North 11.5 mph - N/A   Mostly Cloudy
12:25 PM 37.4 °F 30.8 °F 28.4 °F 70% 30.43 in 10.0 mi NNW 9.2 mph - N/A   Partly Cloudy
12:53 PM 37.0 °F 31.0 °F 28.0 °F 70% 30.45 in 10.0 mi NNW 8.1 mph - N/A   Clear
1:53 PM 39.2 °F 35.0 °F 28.4 °F 65% 30.45 in 10.0 mi Variable 5.8 mph - N/A   Clear
2:53 PM 39.9 °F 36.7 °F 27.0 °F 60% 30.47 in 10.0 mi NW 4.6 mph - N/A   Clear
3:53 PM 37.9 °F - 26.1 °F 62% 30.48 in 10.0 mi Calm Calm - N/A   Clear
4:53 PM 35.1 °F 30.1 °F 28.0 °F 76% 30.50 in 10.0 mi ESE 5.8 mph - N/A   Partly Cloudy
5:53 PM 34.0 °F 29.8 °F 28.0 °F 79% 30.53 in 10.0 mi SE 4.6 mph - N/A   Mostly Cloudy
6:53 PM 33.1 °F 27.7 °F 28.0 °F 82% 30.53 in 10.0 mi SE 5.8 mph - N/A   Partly Cloudy
7:53 PM 32.0 °F 27.5 °F 28.0 °F 85% 30.53 in 10.0 mi SE 4.6 mph - N/A   Clear
8:21 PM 32.0 °F 26.4 °F 28.4 °F 87% 30.52 in 10.0 mi SE 5.8 mph - N/A   Mostly Cloudy
8:53 PM 32.0 °F 28.7 °F 30.0 °F 92% 30.54 in 10.0 mi South 3.5 mph - N/A   Mostly Cloudy
9:53 PM 34.0 °F 28.8 °F 30.0 °F 85% 30.53 in 10.0 mi SSE 5.8 mph - N/A   Overcast
10:53 PM 35.6 °F 28.0 °F 28.4 °F 75% 30.52 in 10.0 mi South 10.4 mph - N/A   Overcast
11:40 PM 35.6 °F 29.9 °F 28.4 °F 75% 30.51 in 10.0 mi SSW 6.9 mph - N/A   Scattered Clouds
11:53 PM 34.0 °F 28.0 °F 28.9 °F 82% 30.53 in 10.0 mi South 6.9 mph - N/A   Clear